| time (UTC) | temp F | wind direction | speed MPH | gust MPH | rain 1hr in | rain 24hr in | rain mn in | humidity % | barometer mb |
| 20260902184539 | 72 | 307 | 6.0 | 12.0 | 0.00 | 0.00 | 0.00 | 81 | 1017.7 |
| 20260902184038 | 72 | 297 | 5.0 | 12.0 | 0.00 | 0.00 | 0.00 | 81 | 1017.7 |
| 20260902183531 | 72 | 291 | 5.0 | 11.0 | 0.00 | 0.00 | 0.00 | 83 | 1017.7 |
| 20260902183050 | 72 | 294 | 6.0 | 10.0 | 0.00 | 0.00 | 0.00 | 83 | 1017.7 |
| 20260902182530 | 71 | 327 | 3.0 | 10.0 | 0.00 | 0.00 | 0.00 | 83 | 1017.8 |
| 20260902182028 | 71 | 323 | 4.0 | 10.0 | 0.00 | 0.00 | 0.00 | 83 | 1017.9 |
| 20260902181527 | 70 | 298 | 5.0 | 10.0 | 0.00 | 0.00 | 0.00 | 84 | 1017.8 |
| 20260902181024 | 70 | 319 | 5.0 | 10.0 | 0.00 | 0.00 | 0.00 | 84 | 1017.8 |
| 20260902180523 | 70 | 289 | 3.0 | 9.0 | 0.00 | 0.00 | 0.00 | 84 | 1017.7 |
| 20260902180022 | 69 | 284 | 4.0 | 9.0 | 0.00 | 0.00 | 0.00 | 84 | 1017.7 |
| 20260902175520 | 69 | 294 | 3.0 | 9.0 | 0.00 | 0.00 | 0.00 | 83 | 1017.6 |
| 20260902175019 | 69 | 271 | 3.0 | 9.0 | 0.00 | 0.00 | 0.00 | 83 | 1017.7 |
| 20260902174523 | 69 | 296 | 3.0 | 9.0 | 0.00 | 0.00 | 0.00 | 83 | 1017.7 |
| 20260902174016 | 69 | 285 | 2.0 | 8.0 | 0.00 | 0.00 | 0.00 | 83 | 1017.8 |
| 20260902173515 | 69 | 296 | 4.0 | 10.0 | 0.00 | 0.00 | 0.00 | 83 | 1017.8 |
| 20260902173023 | 69 | 329 | 4.0 | 9.0 | 0.00 | 0.00 | 0.00 | 83 | 1017.8 |
| 20260902172513 | 68 | 327 | 3.0 | 9.0 | 0.00 | 0.00 | 0.00 | 83 | 1017.8 |
| 20260902172012 | 68 | 304 | 2.0 | 8.0 | 0.00 | 0.00 | 0.00 | 83 | 1017.8 |
| 20260902171511 | 68 | 285 | 2.0 | 8.0 | 0.00 | 0.00 | 0.00 | 82 | 1017.8 |
| 20260902171009 | 68 | 299 | 2.0 | 7.0 | 0.00 | 0.00 | 0.00 | 82 | 1017.8 |
| 20260902170507 | 68 | 280 | 2.0 | 4.0 | 0.00 | 0.00 | 0.00 | 82 | 1017.8 |
| 20260902170007 | 68 | 342 | 1.0 | 5.0 | 0.00 | 0.00 | 0.00 | 82 | 1017.8 |
| 20260902165505 | 68 | 345 | 1.0 | 5.0 | 0.00 | 0.00 | 0.00 | 82 | 1017.6 |
| 20260902165004 | 67 | 75 | 0.0 | 4.0 | 0.00 | 0.00 | 0.00 | 81 | 1017.5 |
| 20260902164501 | 67 | 321 | 1.0 | 4.0 | 0.00 | 0.00 | 0.00 | 81 | 1017.6 |
| 20260902164100 | 66 | 44 | 0.0 | 5.0 | 0.00 | 0.00 | 0.00 | 81 | 1017.6 |
| 20260902163559 | 66 | 345 | 0.0 | 5.0 | 0.00 | 0.00 | 0.00 | 81 | 1017.6 |
| 20260902163103 | 65 | 337 | 1.0 | 5.0 | 0.00 | 0.00 | 0.00 | 81 | 1017.5 |
| 20260902162556 | 66 | 337 | 2.0 | 5.0 | 0.00 | 0.00 | 0.00 | 80 | 1017.5 |
| 20260902162156 | 66 | 56 | 0.0 | 3.0 | 0.00 | 0.00 | 0.00 | 80 | 1017.5 |
| 20260902161554 | 65 | 54 | 0.0 | 3.0 | 0.00 | 0.00 | 0.00 | 80 | 1017.4 |
| 20260902161053 | 64 | 129 | 0.0 | 1.0 | 0.00 | 0.00 | 0.00 | 80 | 1017.5 |
| 20260902160551 | 64 | 129 | 0.0 | 1.0 | 0.00 | 0.00 | 0.00 | 79 | 1017.5 |
| 20260902160049 | 63 | 129 | 0.0 | 0.0 | 0.00 | 0.00 | 0.00 | 79 | 1017.5 |
| 20260902155548 | 62 | 129 | 0.0 | 0.0 | 0.00 | 0.00 | 0.00 | 79 | 1017.6 |
| 20260902155047 | 62 | 129 | 0.0 | 0.0 | 0.00 | 0.00 | 0.00 | 80 | 1017.6 |
| 20260902154545 | 61 | 129 | 0.0 | 0.0 | 0.00 | 0.00 | 0.00 | 79 | 1017.6 |
| 20260902154043 | 60 | 129 | 0.0 | 0.0 | 0.00 | 0.00 | 0.00 | 80 | 1017.5 |
| 20260902153542 | 60 | 129 | 0.0 | 1.0 | 0.00 | 0.00 | 0.00 | 80 | 1017.5 |
| 20260902153052 | 59 | 129 | 0.0 | 1.0 | 0.00 | 0.00 | 0.00 | 80 | 1017.5 |
| 20260902152543 | 59 | 129 | 0.0 | 2.0 | 0.00 | 0.00 | 0.00 | 79 | 1017.5 |
| 20260902152039 | 58 | 77 | 0.0 | 2.0 | 0.00 | 0.00 | 0.00 | 79 | 1017.4 |
| 20260902151537 | 58 | 76 | 0.0 | 1.0 | 0.00 | 0.00 | 0.00 | 79 | 1017.6 |
| 20260902151036 | 57 | 76 | 0.0 | 1.0 | 0.00 | 0.00 | 0.00 | 79 | 1017.6 |
| 20260902150533 | 57 | 76 | 0.0 | 1.0 | 0.00 | 0.00 | 0.00 | 79 | 1017.6 |
| 20260902150032 | 56 | 76 | 0.0 | 1.0 | 0.00 | 0.00 | 0.00 | 79 | 1017.6 |
| 20260902145531 | 55 | 76 | 0.0 | 1.0 | 0.00 | 0.00 | 0.00 | 80 | 1017.6 |
| 20260902145029 | 55 | 76 | 0.0 | 0.0 | 0.00 | 0.00 | 0.00 | 80 | 1017.5 |
| 20260902144527 | 54 | 76 | 0.0 | 0.0 | 0.00 | 0.00 | 0.00 | 80 | 1017.4 |
| 20260902144026 | 54 | 76 | 0.0 | 1.0 | 0.00 | 0.00 | 0.00 | 80 | 1017.3 |
| 20260902143528 | 53 | 76 | 0.0 | 2.0 | 0.00 | 0.00 | 0.00 | 81 | 1017.2 |
| 20260902143023 | 53 | 76 | 0.0 | 2.0 | 0.00 | 0.00 | 0.00 | 81 | 1017.2 |
| 20260902142522 | 52 | 76 | 0.0 | 3.0 | 0.00 | 0.00 | 0.00 | 81 | 1017.1 |
| 20260902142021 | 52 | 76 | 0.0 | 3.0 | 0.00 | 0.00 | 0.00 | 81 | 1017.2 |
| 20260902141518 | 52 | 75 | 0.0 | 3.0 | 0.00 | 0.00 | 0.00 | 81 | 1017.0 |
| 20260902141017 | 52 | 75 | 0.0 | 0.0 | 0.00 | 0.00 | 0.00 | 81 | 1017.1 |
| 20260902140516 | 52 | 75 | 0.0 | 0.0 | 0.00 | 0.00 | 0.00 | 81 | 1017.0 |
| 20260902140155 | 51 | 75 | 0.0 | 0.0 | 0.00 | 0.00 | 0.00 | 82 | 1017.0 |
| 20260902135553 | 51 | 75 | 0.0 | 0.0 | 0.00 | 0.00 | 0.00 | 82 | 1017.1 |
| 20260902135053 | 51 | 75 | 0.0 | 0.0 | 0.00 | 0.00 | 0.00 | 81 | 1017.1 |
| 20260902134553 | 51 | 75 | 0.0 | 3.0 | 0.00 | 0.00 | 0.00 | 81 | 1017.1 |
| 20260902134051 | 51 | 75 | 0.0 | 3.0 | 0.00 | 0.00 | 0.00 | 81 | 1017.0 |
| 20260902133551 | 51 | 75 | 0.0 | 3.0 | 0.00 | 0.00 | 0.00 | 81 | 1017.1 |
| 20260902133057 | 51 | 75 | 0.0 | 1.0 | 0.00 | 0.00 | 0.00 | 81 | 1017.0 |
| 20260902132552 | 51 | 75 | 0.0 | 0.0 | 0.00 | 0.00 | 0.00 | 81 | 1017.1 |
| 20260902132051 | 51 | 75 | 0.0 | 2.0 | 0.00 | 0.00 | 0.00 | 81 | 1017.0 |
| 20260902131551 | 51 | 75 | 0.0 | 2.0 | 0.00 | 0.00 | 0.00 | 81 | 1017.0 |
| 20260902131051 | 51 | 75 | 0.0 | 1.0 | 0.00 | 0.00 | 0.00 | 81 | 1016.9 |
| 20260902130552 | 51 | 75 | 0.0 | 3.0 | 0.00 | 0.00 | 0.00 | 82 | 1017.0 |
| 20260902130050 | 50 | 75 | 1.0 | 3.0 | 0.00 | 0.00 | 0.00 | 82 | 1017.0 |
| 20260902125550 | 50 | 75 | 0.0 | 2.0 | 0.00 | 0.00 | 0.00 | 82 | 1017.0 |
| 20260902125053 | 50 | 75 | 0.0 | 1.0 | 0.00 | 0.00 | 0.00 | 82 | 1017.0 |
| 20260902124551 | 50 | 75 | 0.0 | 1.0 | 0.00 | 0.00 | 0.00 | 82 | 1017.0 |
| 20260902124048 | 50 | 75 | 0.0 | 0.0 | 0.00 | 0.00 | 0.00 | 82 | 1017.0 |
| 20260902123551 | 50 | 75 | 0.0 | 0.0 | 0.00 | 0.00 | 0.00 | 82 | 1017.0 |
| 20260902123054 | 50 | 75 | 0.0 | 2.0 | 0.00 | 0.00 | 0.00 | 82 | 1017.0 |
| 20260902122549 | 50 | 75 | 0.0 | 3.0 | 0.00 | 0.00 | 0.00 | 82 | 1017.0 |
| 20260902122048 | 50 | 75 | 1.0 | 3.0 | 0.00 | 0.00 | 0.00 | 81 | 1017.0 |
| 20260902121548 | 50 | 72 | 0.0 | 0.0 | 0.00 | 0.00 | 0.00 | 81 | 1016.9 |
| 20260902121148 | 51 | 72 | 0.0 | 0.0 | 0.00 | 0.00 | 0.00 | 81 | 1017.0 |
| 20260902120550 | 51 | 72 | 0.0 | 2.0 | 0.00 | 0.00 | 0.00 | 81 | 1016.9 |
| 20260902120049 | 51 | 72 | 0.0 | 5.0 | 0.00 | 0.00 | 0.00 | 81 | 1017.0 |
| 20260902115545 | 51 | 45 | 0.0 | 6.0 | 0.00 | 0.00 | 0.00 | 81 | 1017.0 |
| 20260902115045 | 51 | 37 | 2.0 | 6.0 | 0.00 | 0.00 | 0.00 | 81 | 1016.9 |
| 20260902114545 | 51 | 94 | 0.0 | 0.0 | 0.00 | 0.00 | 0.00 | 81 | 1016.9 |
| 20260902114044 | 51 | 94 | 0.0 | 0.0 | 0.00 | 0.00 | 0.00 | 81 | 1016.9 |
| 20260902113543 | 51 | 94 | 0.0 | 1.0 | 0.00 | 0.00 | 0.00 | 81 | 1017.0 |
| 20260902113047 | 51 | 94 | 0.0 | 1.0 | 0.00 | 0.00 | 0.00 | 81 | 1016.9 |
| 20260902112543 | 52 | 94 | 0.0 | 1.0 | 0.00 | 0.00 | 0.00 | 81 | 1017.0 |
| 20260902112046 | 52 | 94 | 0.0 | 1.0 | 0.00 | 0.00 | 0.00 | 81 | 1017.0 |
| 20260902111543 | 52 | 94 | 0.0 | 2.0 | 0.00 | 0.00 | 0.00 | 81 | 1016.9 |
| 20260902111042 | 52 | 94 | 0.0 | 2.0 | 0.00 | 0.00 | 0.00 | 82 | 1016.8 |
| 20260902110541 | 52 | 94 | 0.0 | 2.0 | 0.00 | 0.00 | 0.00 | 82 | 1016.8 |
| 20260902110050 | 52 | 94 | 0.0 | 0.0 | 0.00 | 0.00 | 0.00 | 82 | 1016.9 |
| 20260902105541 | 52 | 94 | 0.0 | 0.0 | 0.00 | 0.00 | 0.00 | 82 | 1016.8 |
| 20260902105041 | 51 | 94 | 0.0 | 2.0 | 0.00 | 0.00 | 0.00 | 82 | 1016.8 |
| 20260902104555 | 51 | 94 | 0.0 | 2.0 | 0.00 | 0.00 | 0.00 | 82 | 1016.8 |
| 20260902104040 | 51 | 94 | 0.0 | 2.0 | 0.00 | 0.00 | 0.00 | 82 | 1016.7 |
| 20260902103540 | 51 | 94 | 0.0 | 3.0 | 0.00 | 0.00 | 0.00 | 82 | 1016.8 |
| 20260902103058 | 51 | 94 | 1.0 | 3.0 | 0.00 | 0.00 | 0.00 | 82 | 1016.8 |
| 20260902102539 | 51 | 92 | 0.0 | 2.0 | 0.00 | 0.00 | 0.00 | 82 | 1016.7 |
| 20260902102040 | 52 | 92 | 0.0 | 3.0 | 0.00 | 0.00 | 0.00 | 82 | 1016.7 |
| 20260902101538 | 52 | 92 | 0.0 | 2.0 | 0.00 | 0.00 | 0.00 | 82 | 1016.8 |
| 20260902101037 | 52 | 92 | 0.0 | 3.0 | 0.00 | 0.00 | 0.00 | 82 | 1016.8 |
| 20260902100537 | 52 | 92 | 0.0 | 3.0 | 0.00 | 0.00 | 0.00 | 82 | 1016.8 |
| 20260902100037 | 52 | 92 | 0.0 | 0.0 | 0.00 | 0.00 | 0.00 | 82 | 1016.9 |
| 20260902095536 | 52 | 92 | 0.0 | 0.0 | 0.00 | 0.00 | 0.00 | 82 | 1016.9 |
| 20260902095037 | 52 | 92 | 0.0 | 3.0 | 0.00 | 0.00 | 0.00 | 83 | 1017.0 |
| 20260902094536 | 52 | 92 | 1.0 | 3.0 | 0.00 | 0.00 | 0.00 | 83 | 1017.0 |
| 20260902094033 | 52 | 92 | 0.0 | 0.0 | 0.00 | 0.00 | 0.00 | 83 | 1017.1 |
| 20260902093534 | 52 | 92 | 0.0 | 0.0 | 0.00 | 0.00 | 0.00 | 82 | 1017.1 |
| 20260902093032 | 52 | 92 | 0.0 | 0.0 | 0.00 | 0.00 | 0.00 | 82 | 1017.2 |
| 20260902092532 | 53 | 92 | 0.0 | 1.0 | 0.00 | 0.00 | 0.00 | 82 | 1017.2 |
| 20260902092032 | 53 | 92 | 0.0 | 1.0 | 0.00 | 0.00 | 0.00 | 82 | 1017.1 |
| 20260902091530 | 53 | 92 | 0.0 | 1.0 | 0.00 | 0.00 | 0.00 | 82 | 1017.2 |
| 20260902091031 | 53 | 92 | 0.0 | 1.0 | 0.00 | 0.00 | 0.00 | 82 | 1017.1 |
| 20260902090530 | 53 | 92 | 0.0 | 0.0 | 0.00 | 0.00 | 0.00 | 82 | 1017.2 |
| 20260902090036 | 53 | 92 | 0.0 | 1.0 | 0.00 | 0.00 | 0.00 | 82 | 1017.2 |
| 20260902085528 | 53 | 92 | 0.0 | 1.0 | 0.00 | 0.00 | 0.00 | 82 | 1017.1 |
| 20260902085027 | 54 | 92 | 0.0 | 0.0 | 0.00 | 0.00 | 0.00 | 82 | 1017.2 |
| 20260902084535 | 54 | 92 | 0.0 | 1.0 | 0.00 | 0.00 | 0.00 | 82 | 1017.1 |
| 20260902084029 | 54 | 92 | 0.0 | 1.0 | 0.00 | 0.00 | 0.00 | 82 | 1017.3 |
| 20260902083531 | 54 | 92 | 0.0 | 1.0 | 0.00 | 0.00 | 0.00 | 82 | 1017.3 |
| 20260902083025 | 54 | 92 | 0.0 | 2.0 | 0.00 | 0.00 | 0.00 | 82 | 1017.2 |
| 20260902082525 | 54 | 92 | 0.0 | 2.0 | 0.00 | 0.00 | 0.00 | 82 | 1017.2 |
| 20260902082025 | 54 | 92 | 0.0 | 2.0 | 0.00 | 0.00 | 0.00 | 83 | 1017.3 |
| 20260902081525 | 54 | 92 | 0.0 | 2.0 | 0.00 | 0.00 | 0.00 | 83 | 1017.3 |
| 20260902081024 | 54 | 92 | 0.0 | 0.0 | 0.00 | 0.00 | 0.00 | 82 | 1017.2 |
| 20260902080523 | 54 | 92 | 0.0 | 1.0 | 0.00 | 0.00 | 0.00 | 83 | 1017.1 |
| 20260902080023 | 55 | 92 | 0.0 | 1.0 | 0.00 | 0.00 | 0.00 | 83 | 1017.2 |
| 20260902075521 | 55 | 92 | 0.0 | 1.0 | 0.00 | 0.00 | 0.00 | 83 | 1017.2 |
| 20260902075020 | 55 | 92 | 0.0 | 0.0 | 0.00 | 0.00 | 0.00 | 83 | 1017.1 |
| 20260902074520 | 55 | 92 | 0.0 | 0.0 | 0.00 | 0.00 | 0.00 | 83 | 1017.0 |
| 20260902074020 | 55 | 92 | 0.0 | 2.0 | 0.00 | 0.00 | 0.00 | 83 | 1017.0 |
| 20260902073520 | 55 | 92 | 0.0 | 4.0 | 0.00 | 0.00 | 0.00 | 83 | 1017.1 |
| 20260902073019 | 55 | 92 | 1.0 | 4.0 | 0.00 | 0.00 | 0.00 | 83 | 1017.0 |
| 20260902072518 | 55 | 92 | 0.0 | 3.0 | 0.00 | 0.00 | 0.00 | 84 | 1017.0 |
| 20260902072016 | 55 | 92 | 0.0 | 3.0 | 0.00 | 0.00 | 0.00 | 84 | 1017.1 |
| 20260902071516 | 55 | 92 | 0.0 | 4.0 | 0.00 | 0.00 | 0.00 | 84 | 1017.1 |
| 20260902071016 | 55 | 92 | 1.0 | 4.0 | 0.00 | 0.00 | 0.00 | 84 | 1017.1 |
| 20260902070514 | 56 | 85 | 1.0 | 3.0 | 0.00 | 0.00 | 0.00 | 84 | 1017.1 |
| 20260902070021 | 56 | 83 | 0.0 | 3.0 | 0.00 | 0.00 | 0.00 | 84 | 1017.1 |
| 20260902065512 | 57 | 50 | 0.0 | 2.0 | 0.00 | 0.00 | 0.00 | 84 | 1017.1 |
| 20260902065015 | 57 | 50 | 0.0 | 0.0 | 0.00 | 0.00 | 0.00 | 84 | 1017.1 |
| 20260902064514 | 57 | 45 | 0.0 | 0.0 | 0.00 | 0.00 | 0.00 | 84 | 1017.1 |
| 20260902064012 | 57 | 45 | 0.0 | 0.0 | 0.00 | 0.00 | 0.00 | 84 | 1017.1 |
| 20260902063513 | 57 | 45 | 0.0 | 0.0 | 0.00 | 0.00 | 0.00 | 84 | 1017.1 |
| 20260902063032 | 57 | 45 | 0.0 | 0.0 | 0.00 | 0.00 | 0.00 | 85 | 1017.1 |
| 20260902062512 | 57 | 45 | 0.0 | 0.0 | 0.00 | 0.00 | 0.00 | 85 | 1017.1 |
| 20260902062012 | 58 | 45 | 0.0 | 0.0 | 0.00 | 0.00 | 0.00 | 85 | 1017.0 |
| 20260902061512 | 58 | 45 | 0.0 | 0.0 | 0.00 | 0.00 | 0.00 | 84 | 1016.9 |
| 20260902061011 | 58 | 45 | 0.0 | 0.0 | 0.00 | 0.00 | 0.00 | 85 | 1016.9 |
| 20260902060512 | 58 | 45 | 0.0 | 0.0 | 0.00 | 0.00 | 0.00 | 85 | 1016.9 |
| 20260902060010 | 58 | 45 | 0.0 | 0.0 | 0.00 | 0.00 | 0.00 | 85 | 1017.0 |
| 20260902055510 | 58 | 45 | 0.0 | 0.0 | 0.00 | 0.00 | 0.00 | 85 | 1017.0 |
| 20260902055010 | 58 | 45 | 0.0 | 0.0 | 0.00 | 0.00 | 0.00 | 85 | 1017.0 |
| 20260902054513 | 58 | 45 | 0.0 | 0.0 | 0.00 | 0.00 | 0.00 | 85 | 1017.0 |
| 20260902054010 | 59 | 45 | 0.0 | 0.0 | 0.00 | 0.00 | 0.00 | 85 | 1017.1 |
| 20260902053510 | 59 | 45 | 0.0 | 0.0 | 0.00 | 0.00 | 0.00 | 85 | 1017.0 |
| 20260902053010 | 59 | 45 | 0.0 | 0.0 | 0.00 | 0.00 | 0.00 | 85 | 1017.1 |
| 20260902052509 | 59 | 45 | 0.0 | 0.0 | 0.00 | 0.00 | 0.00 | 85 | 1017.2 |
| 20260902052009 | 59 | 45 | 0.0 | 0.0 | 0.00 | 0.00 | 0.00 | 85 | 1017.3 |
| 20260902051510 | 59 | 45 | 0.0 | 1.0 | 0.00 | 0.00 | 0.00 | 85 | 1017.2 |
| 20260902051010 | 59 | 45 | 0.0 | 2.0 | 0.00 | 0.00 | 0.00 | 85 | 1017.3 |
| 20260902050511 | 60 | 45 | 0.0 | 0.0 | 0.00 | 0.00 | 0.00 | 85 | 1017.4 |
| 20260902050004 | 60 | 45 | 0.0 | 1.0 | 0.00 | 0.00 | 0.00 | 85 | 1017.4 |
| 20260902045501 | 60 | 45 | 0.0 | 3.0 | 0.00 | 0.00 | 0.00 | 85 | 1017.3 |
| 20260902045002 | 60 | 44 | 0.0 | 7.0 | 0.00 | 0.00 | 0.00 | 85 | 1017.2 |
| 20260902044502 | 60 | 13 | 0.0 | 6.0 | 0.00 | 0.00 | 0.00 | 85 | 1017.3 |
| 20260902044001 | 60 | 35 | 0.0 | 7.0 | 0.00 | 0.00 | 0.00 | 85 | 1017.3 |
| 20260902043501 | 60 | 75 | 0.0 | 8.0 | 0.00 | 0.00 | 0.00 | 86 | 1017.1 |
| 20260902043100 | 61 | 50 | 0.0 | 8.0 | 0.00 | 0.00 | 0.00 | 86 | 1017.1 |
| 20260902042600 | 61 | 15 | 0.0 | 4.0 | 0.00 | 0.00 | 0.00 | 86 | 1017.1 |
| 20260902042101 | 61 | 32 | 0.0 | 4.0 | 0.00 | 0.00 | 0.00 | 86 | 1017.0 |
| 20260902041604 | 61 | 71 | 0.0 | 4.0 | 0.00 | 0.00 | 0.00 | 86 | 1017.0 |
| 20260902041059 | 61 | 14 | 0.0 | 8.0 | 0.00 | 0.00 | 0.00 | 86 | 1016.9 |
| 20260902040600 | 61 | 25 | 2.0 | 8.0 | 0.00 | 0.00 | 0.00 | 86 | 1016.8 |
| 20260902040052 | 62 | 17 | 2.0 | 10.0 | 0.00 | 0.00 | 0.00 | 86 | 1016.7 |
| 20260902035552 | 62 | 352 | 0.0 | 10.0 | 0.00 | 0.00 | 0.00 | 86 | 1016.8 |
| 20260902035052 | 62 | 350 | 0.0 | 7.0 | 0.00 | 0.00 | 0.00 | 86 | 1016.7 |
| 20260902034552 | 62 | 6 | 1.0 | 7.0 | 0.00 | 0.00 | 0.00 | 86 | 1016.6 |
| 20260902034050 | 62 | 14 | 1.0 | 7.0 | 0.00 | 0.00 | 0.00 | 86 | 1016.6 |
| 20260902033551 | 62 | 41 | 2.0 | 5.0 | 0.00 | 0.00 | 0.00 | 87 | 1016.5 |
| 20260902033051 | 62 | 46 | 1.0 | 6.0 | 0.00 | 0.00 | 0.00 | 87 | 1016.5 |
| 20260902032555 | 62 | 45 | 0.0 | 6.0 | 0.00 | 0.00 | 0.00 | 87 | 1016.4 |
| 20260902032050 | 62 | 22 | 0.0 | 7.0 | 0.00 | 0.00 | 0.00 | 87 | 1016.4 |
| 20260902031558 | 62 | 1 | 0.0 | 5.0 | 0.00 | 0.00 | 0.00 | 88 | 1016.4 |
| 20260902031050 | 62 | 13 | 1.0 | 8.0 | 0.00 | 0.00 | 0.00 | 88 | 1016.4 |
| 20260902030551 | 62 | 342 | 1.0 | 9.0 | 0.00 | 0.00 | 0.00 | 88 | 1016.3 |
| 20260902030044 | 62 | 27 | 1.0 | 9.0 | 0.00 | 0.00 | 0.00 | 89 | 1016.3 |
| 20260902025546 | 62 | 108 | 0.0 | 9.0 | 0.00 | 0.00 | 0.00 | 88 | 1016.3 |
| 20260902025043 | 62 | 3 | 1.0 | 9.0 | 0.00 | 0.00 | 0.00 | 89 | 1016.2 |
| 20260902024551 | 63 | 12 | 2.0 | 7.0 | 0.00 | 0.00 | 0.00 | 89 | 1016.2 |
| 20260902024043 | 63 | 347 | 0.0 | 10.0 | 0.00 | 0.00 | 0.00 | 89 | 1016.2 |
| 20260902023543 | 63 | 49 | 2.0 | 10.0 | 0.00 | 0.00 | 0.00 | 88 | 1016.2 |
| 20260902023046 | 63 | 35 | 0.0 | 10.0 | 0.00 | 0.00 | 0.00 | 88 | 1016.0 |
| 20260902022542 | 64 | 347 | 2.0 | 10.0 | 0.00 | 0.00 | 0.00 | 88 | 1016.1 |
| 20260902022042 | 64 | 340 | 0.0 | 8.0 | 0.00 | 0.00 | 0.00 | 88 | 1016.0 |
| 20260902021544 | 64 | 56 | 1.0 | 9.0 | 0.00 | 0.00 | 0.00 | 87 | 1016.1 |
| 20260902021042 | 64 | 35 | 0.0 | 6.0 | 0.00 | 0.00 | 0.00 | 87 | 1016.0 |
| 20260902020543 | 65 | 34 | 0.0 | 9.0 | 0.00 | 0.00 | 0.00 | 87 | 1016.1 |
| 20260902020127 | 65 | 10 | 2.0 | 9.0 | 0.00 | 0.00 | 0.00 | 87 | 1016.0 |
| 20260902015525 | 65 | 15 | 2.0 | 7.0 | 0.00 | 0.00 | 0.00 | 87 | 1016.0 |
| 20260902015025 | 65 | 62 | 0.0 | 10.0 | 0.00 | 0.00 | 0.00 | 86 | 1015.9 |
| 20260902014528 | 66 | 43 | 2.0 | 10.0 | 0.00 | 0.00 | 0.00 | 86 | 1015.9 |
| 20260902014028 | 66 | 331 | 1.0 | 10.0 | 0.00 | 0.00 | 0.00 | 86 | 1015.9 |
| 20260902013524 | 66 | 303 | 0.0 | 8.0 | 0.00 | 0.00 | 0.00 | 86 | 1015.9 |
| 20260902013024 | 67 | 332 | 2.0 | 9.0 | 0.00 | 0.00 | 0.00 | 85 | 1015.8 |
| 20260902012529 | 67 | 334 | 1.0 | 14.0 | 0.00 | 0.00 | 0.00 | 85 | 1015.8 |
| 20260902012024 | 67 | 29 | 2.0 | 12.0 | 0.00 | 0.00 | 0.00 | 85 | 1015.8 |
| 20260902011529 | 67 | 321 | 1.0 | 9.0 | 0.00 | 0.00 | 0.00 | 85 | 1015.9 |
| 20260902011024 | 68 | 28 | 1.0 | 10.0 | 0.00 | 0.00 | 0.00 | 84 | 1015.9 |
| 20260902010523 | 68 | 1 | 2.0 | 10.0 | 0.00 | 0.00 | 0.00 | 84 | 1015.9 |
| 20260902010024 | 68 | 55 | 2.0 | 10.0 | 0.00 | 0.00 | 0.00 | 84 | 1015.9 |
| 20260902005523 | 69 | 297 | 3.0 | 16.0 | 0.00 | 0.00 | 0.00 | 85 | 1015.8 |
| 20260902005026 | 69 | 124 | 3.0 | 14.0 | 0.00 | 0.00 | 0.00 | 83 | 1015.9 |
| 20260902004523 | 69 | 34 | 3.0 | 14.0 | 0.00 | 0.00 | 0.00 | 84 | 1015.9 |
| 20260902004022 | 69 | 6 | 2.0 | 9.0 | 0.00 | 0.00 | 0.00 | 84 | 1015.8 |
| 20260902003522 | 69 | 23 | 2.0 | 10.0 | 0.00 | 0.00 | 0.00 | 84 | 1015.8 |
| 20260902003023 | 69 | 15 | 2.0 | 10.0 | 0.00 | 0.00 | 0.00 | 84 | 1015.7 |
| 20260902002525 | 69 | 23 | 0.0 | 6.0 | 0.00 | 0.00 | 0.00 | 85 | 1015.7 |
| 20260902002022 | 69 | 313 | 0.0 | 13.0 | 0.00 | 0.00 | 0.00 | 86 | 1015.7 |
| 20260902001522 | 69 | 316 | 0.0 | 13.0 | 0.00 | 0.00 | 0.00 | 86 | 1015.6 |
| 20260902001022 | 69 | 319 | 3.0 | 13.0 | 0.00 | 0.00 | 0.00 | 86 | 1015.7 |
| 20260902000521 | 70 | 303 | 7.0 | 13.0 | 0.00 | 0.00 | 0.00 | 86 | 1015.7 |
| 20260902000021 | 70 | 296 | 7.0 | 17.0 | 0.00 | 0.00 | 0.00 | 85 | 1015.6 |
| 20260901235522 | 71 | 290 | 7.0 | 14.0 | 0.00 | 0.00 | 0.00 | 85 | 1015.7 |
| 20260901235024 | 71 | 310 | 4.0 | 13.0 | 0.00 | 0.00 | 0.00 | 85 | 1015.7 |
| 20260901234520 | 71 | 302 | 5.0 | 15.0 | 0.00 | 0.00 | 0.00 | 85 | 1015.7 |
| 20260901234020 | 71 | 321 | 8.0 | 15.0 | 0.00 | 0.00 | 0.00 | 84 | 1015.7 |
| 20260901233520 | 71 | 331 | 4.0 | 16.0 | 0.00 | 0.00 | 0.00 | 84 | 1015.7 |
| 20260901233025 | 71 | 300 | 9.0 | 16.0 | 0.00 | 0.00 | 0.00 | 83 | 1015.7 |
| 20260901232518 | 71 | 345 | 7.0 | 15.0 | 0.00 | 0.00 | 0.00 | 84 | 1015.8 |
| 20260901232019 | 71 | 11 | 9.0 | 15.0 | 0.00 | 0.00 | 0.00 | 83 | 1015.8 |
| 20260901231525 | 71 | 314 | 6.0 | 15.0 | 0.00 | 0.00 | 0.00 | 84 | 1015.8 |
| 20260901231020 | 71 | 322 | 6.0 | 15.0 | 0.00 | 0.00 | 0.00 | 84 | 1015.8 |
| 20260901230518 | 72 | 296 | 8.0 | 17.0 | 0.00 | 0.00 | 0.00 | 83 | 1015.9 |
| 20260901230020 | 72 | 284 | 8.0 | 17.0 | 0.00 | 0.00 | 0.00 | 83 | 1015.9 |
| 20260901225519 | 72 | 326 | 7.0 | 13.0 | 0.00 | 0.00 | 0.00 | 83 | 1016.0 |
| 20260901225018 | 72 | 302 | 6.0 | 13.0 | 0.00 | 0.00 | 0.00 | 84 | 1015.9 |
| 20260901224517 | 72 | 275 | 8.0 | 13.0 | 0.00 | 0.00 | 0.00 | 83 | 1015.8 |
| 20260901224019 | 72 | 306 | 3.0 | 11.0 | 0.00 | 0.00 | 0.00 | 83 | 1015.8 |
| 20260901223515 | 72 | 291 | 2.0 | 14.0 | 0.00 | 0.00 | 0.00 | 83 | 1015.9 |
| 20260901223016 | 72 | 283 | 4.0 | 14.0 | 0.00 | 0.00 | 0.00 | 84 | 1015.8 |
| 20260901222516 | 72 | 299 | 10.0 | 14.0 | 0.00 | 0.00 | 0.00 | 83 | 1016.0 |
| 20260901222017 | 72 | 308 | 6.0 | 13.0 | 0.00 | 0.00 | 0.00 | 83 | 1016.1 |
| 20260901221514 | 72 | 274 | 6.0 | 13.0 | 0.00 | 0.00 | 0.00 | 83 | 1016.0 |
| 20260901221013 | 72 | 274 | 4.0 | 12.0 | 0.00 | 0.00 | 0.00 | 84 | 1016.0 |
| 20260901220514 | 71 | 293 | 6.0 | 13.0 | 0.00 | 0.00 | 0.00 | 83 | 1016.2 |
| 20260901220012 | 71 | 312 | 7.0 | 14.0 | 0.00 | 0.00 | 0.00 | 83 | 1016.2 |
| 20260901215513 | 71 | 326 | 7.0 | 14.0 | 0.00 | 0.00 | 0.00 | 83 | 1016.2 |
| 20260901215011 | 71 | 310 | 7.0 | 14.0 | 0.00 | 0.00 | 0.00 | 84 | 1016.1 |
| 20260901214511 | 71 | 302 | 8.0 | 14.0 | 0.00 | 0.00 | 0.00 | 83 | 1016.1 |
| 20260901214012 | 71 | 291 | 4.0 | 14.0 | 0.00 | 0.00 | 0.00 | 84 | 1016.3 |
| 20260901213511 | 71 | 306 | 7.0 | 17.0 | 0.00 | 0.00 | 0.00 | 84 | 1016.3 |
| 20260901213021 | 71 | 318 | 9.0 | 17.0 | 0.00 | 0.00 | 0.00 | 83 | 1016.4 |
| 20260901212511 | 71 | 276 | 8.0 | 16.0 | 0.00 | 0.00 | 0.00 | 84 | 1016.3 |
| 20260901212014 | 71 | 331 | 5.0 | 16.0 | 0.00 | 0.00 | 0.00 | 84 | 1016.5 |
| 20260901211513 | 71 | 303 | 5.0 | 16.0 | 0.00 | 0.00 | 0.00 | 84 | 1016.4 |
| 20260901211010 | 71 | 321 | 8.0 | 17.0 | 0.00 | 0.00 | 0.00 | 84 | 1016.5 |
| 20260901210509 | 71 | 306 | 8.0 | 17.0 | 0.00 | 0.00 | 0.00 | 84 | 1016.5 |
| 20260901210013 | 71 | 283 | 5.0 | 13.0 | 0.00 | 0.00 | 0.00 | 84 | 1016.5 |
| 20260901205508 | 71 | 298 | 6.0 | 16.0 | 0.00 | 0.00 | 0.00 | 84 | 1016.5 |
| 20260901205009 | 71 | 281 | 9.0 | 15.0 | 0.00 | 0.00 | 0.00 | 84 | 1016.5 |
| 20260901204512 | 71 | 298 | 9.0 | 16.0 | 0.00 | 0.00 | 0.00 | 84 | 1016.5 |
| 20260901204008 | 71 | 304 | 7.0 | 19.0 | 0.00 | 0.00 | 0.00 | 84 | 1016.6 |
| 20260901203507 | 71 | 288 | 10.0 | 19.0 | 0.00 | 0.00 | 0.00 | 83 | 1016.7 |
| 20260901203007 | 71 | 318 | 7.0 | 16.0 | 0.00 | 0.00 | 0.00 | 84 | 1016.6 |
| 20260901202508 | 71 | 331 | 6.0 | 14.0 | 0.00 | 0.00 | 0.00 | 84 | 1016.7 |
| 20260901202002 | 71 | 347 | 6.0 | 14.0 | 0.00 | 0.00 | 0.00 | 83 | 1016.7 |
| 20260901201501 | 71 | 327 | 4.0 | 13.0 | 0.00 | 0.00 | 0.00 | 83 | 1016.7 |
| 20260901201101 | 71 | 316 | 2.0 | 13.0 | 0.00 | 0.00 | 0.00 | 84 | 1016.7 |
| 20260901200600 | 71 | 311 | 4.0 | 13.0 | 0.00 | 0.00 | 0.00 | 84 | 1017.0 |
| 20260901200059 | 71 | 298 | 3.0 | 14.0 | 0.00 | 0.00 | 0.00 | 84 | 1016.9 |
| 20260901195559 | 71 | 330 | 5.0 | 14.0 | 0.00 | 0.00 | 0.00 | 84 | 1016.9 |
| 20260901195103 | 71 | 288 | 7.0 | 13.0 | 0.00 | 0.00 | 0.00 | 83 | 1017.0 |
| 20260901194602 | 71 | 298 | 4.0 | 11.0 | 0.00 | 0.00 | 0.00 | 84 | 1017.0 |
| 20260901194058 | 71 | 293 | 6.0 | 12.0 | 0.00 | 0.00 | 0.00 | 84 | 1017.0 |
| 20260901193655 | 71 | 275 | 6.0 | 13.0 | 0.00 | 0.00 | 0.00 | 84 | 1017.0 |
| 20260901193056 | 71 | 321 | 6.0 | 13.0 | 0.00 | 0.00 | 0.00 | 83 | 1016.9 |
| 20260901192558 | 71 | 308 | 3.0 | 13.0 | 0.00 | 0.00 | 0.00 | 84 | 1016.8 |
| 20260901192054 | 71 | 344 | 7.0 | 15.0 | 0.00 | 0.00 | 0.00 | 83 | 1016.9 |
| 20260901191552 | 71 | 308 | 7.0 | 14.0 | 0.00 | 0.00 | 0.00 | 83 | 1016.8 |
| 20260901191052 | 71 | 293 | 5.0 | 14.0 | 0.00 | 0.00 | 0.00 | 84 | 1016.8 |
| 20260901190550 | 70 | 317 | 5.0 | 15.0 | 0.00 | 0.00 | 0.00 | 84 | 1017.0 |
| 20260901190049 | 71 | 327 | 6.0 | 15.0 | 0.00 | 0.00 | 0.00 | 83 | 1017.0 |
| 20260901185548 | 70 | 297 | 6.0 | 15.0 | 0.00 | 0.00 | 0.00 | 84 | 1017.0 |
| 20260901185047 | 70 | 301 | 4.0 | 15.0 | 0.00 | 0.00 | 0.00 | 83 | 1016.9 |